Location: D�pe
(52.6057°N, 8.1808°E)
Time: 07:51:43
(UTC+00:00)

NOSS 3-3 (A) - Pass Details

Date: 29 October 2020
Orbit: 819 x 1393 km, 63.4° (Epoch: 29 November)

Event Time Altitude Azimuth Distance (km) Brightness Sun altitude
Rises 18:04:55 0° 208° (SSW) 3,418 7.2 -19.1°
Reaches altitude 10° 18:07:18 10° 205° (SSW) 2,531 6.4 -19.4°
Maximum altitude 18:13:01 59° 127° (SE) 1,093 4.0 -20.3°
Enters shadow 18:16:07 31° 61° (ENE) 1,692 4.8 -20.8°
